Powrót do katalogu

ELECTRON KICK STAGE R/B

AktywnySSO
NORAD 58901·ROCKET BODY·🇺🇸 United States

Wystrzelony Jan 31, 2024 z Rocket Lab Launch Complex 1

Loading…

Następne Przeloty (najbliższe 24 godziny)

TLE

ŚwieżeSource: Space-Track

Epoka: Sep 14, 2026, 14:31 UTC

1 58901U 24022C   26257.60523706  .00060682  00000-0  58670-3 0  9995
2 58901  97.3870 118.7800 0006238 110.1262 250.0670 15.66231416146710

Śledź ELECTRON KICK STAGE R/B w czasie rzeczywistym z AllMySat

Download on the App Store